Stations météo

Publicité
Lechfeld, Allemagne (10856): Température de l'air & dewpoint: 15.06.2018 01:00:00 - 21.06.2018 01:00:00 (CEST)Lechfeld, Allemagne (10856): Vitesse du vent: 15.06.2018 01:00:00 - 21.06.2018 01:00:00 (CEST)Lechfeld, Allemagne (10856): Direction du vent: 15.06.2018 01:00:00 - 21.06.2018 01:00:00 (CEST)Lechfeld, Allemagne (10856): reduced air pressure: 15.06.2018 01:00:00 - 21.06.2018 01:00:00 (CEST)Lechfeld, Allemagne (10856): visibility: 15.06.2018 01:00:00 - 21.06.2018 01:00:00 (CEST)
Date & Time tt [°C] td [°C] ff [km/h] ff [knt] dd ppp [hPa] vv [km]
21.06.2018 01:00:00 16,4 13,8 4 2 SSW 1018,4 30
21.06.2018 00:00:00 17,2 14,2 4 2 S 1018,8 30
20.06.2018 23:00:00 17,7 14,5 7 4 SSE 1018,8 30
20.06.2018 22:00:00 21,1 14,2 4 2 S 1018,0 30
20.06.2018 21:00:00 23,1 13,5 7 4 E 1017,3 30
20.06.2018 20:00:00 24,9 13,2 11 6 NE 1016,9 30
20.06.2018 19:00:00 25,9 12,5 7 4 NNE 1016,9 30
20.06.2018 18:00:00 26,2 13,2 7 4 E 1017,0 30
20.06.2018 17:00:00 26,1 13,6 7 4 ENE 1017,7 30
20.06.2018 16:00:00 25,6 14,3 14 8 NNE 1018,1 30
20.06.2018 15:00:00 25,4 13,5 14 8 NE 1018,5 30
20.06.2018 14:00:00 25,0 14,1 14 8 NE 1019,1 30
20.06.2018 13:00:00 24,1 13,8 11 6 NE 1019,7 30
20.06.2018 12:00:00 24,1 13,9 14 8 E 1019,9 30
20.06.2018 11:00:00 23,4 14,5 14 8 E 1020,3 30
20.06.2018 10:00:00 22,3 14,6 11 6 E 1020,8 20
20.06.2018 09:00:00 20,2 15,4 7 4 N 1021,5 20
20.06.2018 08:00:00 17,8 14,2 4 2 NE 1022,3 20
20.06.2018 07:00:00 15,8 13,9 0 0 N 1022,8 20
20.06.2018 06:00:00 12,1 11,8 0 0 N 1023,8 -
20.06.2018 05:00:00 12,0 11,9 4 2 SE 1023,8 15
20.06.2018 04:00:00 12,3 11,7 7 4 S 1023,9 15
20.06.2018 03:00:00 13,3 12,9 4 2 NNE 1024,0 15
20.06.2018 02:00:00 13,8 12,8 4 2 S 1024,2 20
20.06.2018 01:00:00 14,7 14,0 4 2 N 1024,2 20
20.06.2018 00:00:00 16,0 14,3 4 2 SE 1023,8 20
19.06.2018 23:00:00 17,4 13,6 4 2 ESE 1023,5 30
19.06.2018 22:00:00 18,8 13,5 4 2 SE 1023,1 30
19.06.2018 21:00:00 20,6 13,6 7 4 ENE 1022,5 30
19.06.2018 20:00:00 22,6 11,4 7 4 N 1022,0 30
19.06.2018 19:00:00 23,4 11,9 11 6 N 1021,9 30
19.06.2018 18:00:00 23,7 12,3 7 4 NNW 1021,9 30
19.06.2018 17:00:00 24,0 13,2 11 6 W 1022,1 30
19.06.2018 16:00:00 23,4 11,6 11 6 WNW 1022,5 30
19.06.2018 15:00:00 22,8 12,5 11 6 W 1022,9 30
19.06.2018 14:00:00 21,9 11,0 14 8 W 1023,4 30
19.06.2018 13:00:00 21,1 11,7 7 4 WSW 1023,8 30
19.06.2018 12:00:00 20,7 12,2 7 4 WSW 1023,9 30
19.06.2018 11:00:00 20,0 12,3 11 6 WSW 1024,3 30
19.06.2018 10:00:00 18,8 12,6 7 4 N 1024,9 25
19.06.2018 09:00:00 17,6 11,8 11 6 WSW 1024,9 20
19.06.2018 08:00:00 16,2 12,0 11 6 SW 1024,9 20
19.06.2018 07:00:00 15,0 12,1 7 4 S 1025,0 20
19.06.2018 06:00:00 13,7 11,1 7 4 SSW 1025,0 20
19.06.2018 05:00:00 13,7 11,0 7 4 SSW 1024,7 25
19.06.2018 04:00:00 12,6 11,2 7 4 S 1024,5 25
19.06.2018 03:00:00 14,3 10,9 4 2 WNW 1024,1 25
19.06.2018 02:00:00 14,2 11,2 4 2 WNW 1024,0 25
19.06.2018 01:00:00 16,2 12,0 7 4 NNW 1023,6 25
19.06.2018 00:00:00 15,8 12,3 7 4 SSW 1023,5 25
18.06.2018 23:00:00 16,3 11,9 0 0 N 1023,1 25
18.06.2018 22:00:00 17,5 11,5 0 0 N 1022,2 30
18.06.2018 21:00:00 20,1 10,7 4 2 NW 1021,2 30
18.06.2018 20:00:00 21,1 10,0 7 4 NW 1020,7 30
18.06.2018 19:00:00 21,4 10,1 11 6 NW 1020,7 30
18.06.2018 18:00:00 21,8 9,8 11 6 WNW 1020,5 30
18.06.2018 17:00:00 21,9 10,4 11 6 W 1020,5 30
18.06.2018 16:00:00 20,6 10,5 11 6 WNW 1021,3 30
18.06.2018 15:00:00 20,6 11,0 11 6 NW 1021,4 30
18.06.2018 14:00:00 20,0 10,4 11 6 WNW 1021,6 30
18.06.2018 13:00:00 19,1 10,4 11 6 WNW 1022,0 30
18.06.2018 12:00:00 19,0 10,2 7 4 NW 1021,9 30
18.06.2018 11:00:00 18,0 10,2 11 6 NW 1022,3 30
18.06.2018 10:00:00 17,2 10,0 7 4 WNW 1022,4 25
18.06.2018 09:00:00 16,2 10,9 11 6 WNW 1022,4 25
18.06.2018 08:00:00 15,3 11,3 7 4 W 1022,2 20
18.06.2018 07:00:00 15,0 11,8 7 4 W 1022,2 20
18.06.2018 06:00:00 14,4 13,3 7 4 SSW 1022,1 15
18.06.2018 05:00:00 14,8 12,3 7 4 W 1021,6 12
18.06.2018 04:00:00 14,9 13,0 7 4 SW 1021,5 10
18.06.2018 03:00:00 15,8 13,5 7 4 WSW 1021,3 15
18.06.2018 02:00:00 15,9 14,2 7 4 SW 1021,2 15
18.06.2018 01:00:00 15,7 14,3 7 4 S 1021,0 15
18.06.2018 00:00:00 16,2 14,8 7 4 SSW 1020,7 15
17.06.2018 23:00:00 16,4 16,3 4 2 SSW 1020,1 15
17.06.2018 22:00:00 16,1 16,0 11 6 S 1019,9 12
17.06.2018 21:00:00 16,3 15,6 7 4 S 1019,0 20
17.06.2018 20:00:00 16,2 15,8 14 8 SSE 1018,5 15
17.06.2018 19:00:00 20,7 12,1 11 6 NW 1016,5 30
17.06.2018 18:00:00 21,9 11,3 11 6 WNW 1015,8 30
17.06.2018 17:00:00 22,8 10,9 14 8 WNW 1015,8 30
17.06.2018 16:00:00 22,7 11,9 14 8 WNW 1015,7 30
17.06.2018 15:00:00 21,7 11,9 11 6 WNW 1016,2 25
17.06.2018 14:00:00 21,5 12,4 7 4 WNW 1016,6 25
17.06.2018 13:00:00 20,4 13,1 11 6 W 1017,3 25
17.06.2018 12:00:00 19,5 13,1 11 6 NW 1017,4 3,0
17.06.2018 11:00:00 18,6 13,5 14 8 WNW 1017,7 9
17.06.2018 10:00:00 17,7 13,2 11 6 WNW 1017,6 9
17.06.2018 09:00:00 18,3 12,5 11 6 W 1017,0 7
17.06.2018 08:00:00 16,3 11,3 11 6 SW 1017,0 9
17.06.2018 07:00:00 14,2 10,9 11 6 S 1017,0 9
17.06.2018 06:00:00 14,4 10,3 7 4 WSW 1016,7 9
17.06.2018 05:00:00 14,3 10,0 7 4 S 1016,5 8
17.06.2018 04:00:00 13,1 9,9 11 6 S 1016,6 8
17.06.2018 03:00:00 13,8 10,0 11 6 S 1016,5 9
17.06.2018 02:00:00 13,5 10,6 7 4 S 1016,6 8
17.06.2018 01:00:00 13,8 11,5 7 4 SSW 1016,6 8
17.06.2018 00:00:00 14,0 11,5 4 2 S 1016,5 8
16.06.2018 23:00:00 16,2 10,3 4 2 WSW 1015,7 10
16.06.2018 22:00:00 18,0 9,7 4 2 E 1015,1 10
16.06.2018 21:00:00 19,6 9,7 4 2 E 1014,1 12
16.06.2018 20:00:00 21,5 9,0 7 4 NE 1013,6 14
16.06.2018 19:00:00 22,7 6,9 4 2 NNE 1013,1 14
16.06.2018 18:00:00 23,5 7,9 7 4 SE 1012,8 16
16.06.2018 17:00:00 22,6 9,0 11 6 ENE 1013,2 16
16.06.2018 16:00:00 22,2 8,0 11 6 E 1013,6 15
16.06.2018 15:00:00 22,5 8,8 11 6 ENE 1013,8 14
16.06.2018 14:00:00 21,9 8,6 11 6 NE 1014,2 13
16.06.2018 13:00:00 21,9 9,5 14 8 NE 1014,7 13
16.06.2018 12:00:00 21,5 9,8 14 8 ENE 1014,9 14
16.06.2018 11:00:00 20,5 11,2 11 6 E 1015,0 11
16.06.2018 10:00:00 19,1 11,3 7 4 ENE 1015,4 8
16.06.2018 09:00:00 16,3 10,9 4 2 SSW 1016,2 6
16.06.2018 08:00:00 14,4 10,3 4 2 N 1016,4 7
16.06.2018 07:00:00 10,7 9,6 7 4 S 1017,2 7
16.06.2018 06:00:00 8,5 8,4 7 4 S 1017,6 8
16.06.2018 05:00:00 8,7 8,5 4 2 SSW 1017,7 7
16.06.2018 04:00:00 8,4 8,3 7 4 S 1017,9 6
16.06.2018 03:00:00 8,7 8,6 4 2 S 1018,1 0,2
16.06.2018 02:00:00 9,8 9,7 4 2 SW 1018,2 5
16.06.2018 01:00:00 10,4 10,3 4 2 SSW 1018,1 2,4
16.06.2018 00:00:00 12,1 10,2 4 2 SE 1017,6 9
15.06.2018 23:00:00 13,1 9,2 4 2 ESE 1017,5 8
15.06.2018 22:00:00 16,2 8,7 4 2 NNE 1016,6 11
15.06.2018 21:00:00 17,8 8,6 7 4 NNE 1015,9 12
15.06.2018 20:00:00 18,4 8,7 11 6 NNE 1015,6 40
15.06.2018 19:00:00 19,8 8,2 14 8 N 1015,1 40
15.06.2018 18:00:00 19,1 8,5 11 6 N 1015,2 40
15.06.2018 17:00:00 19,1 7,6 7 4 NNE 1015,4 40
15.06.2018 16:00:00 20,1 7,1 11 6 E 1015,4 40
15.06.2018 15:00:00 20,0 8,5 11 6 ENE 1015,4 40
15.06.2018 14:00:00 19,3 7,4 7 4 ENE 1015,7 40
15.06.2018 13:00:00 18,9 7,3 11 6 N 1016,1 40
15.06.2018 12:00:00 18,2 7,6 11 6 N 1016,1 30
15.06.2018 11:00:00 17,9 7,7 11 6 NE 1016,2 30
15.06.2018 10:00:00 17,2 8,4 11 6 ENE 1016,3 30
15.06.2018 09:00:00 15,4 10,5 4 2 NNE 1017,0 20
15.06.2018 08:00:00 12,5 10,0 7 4 S 1017,5 20
15.06.2018 07:00:00 11,0 9,5 4 2 S 1017,9 20
15.06.2018 06:00:00 9,5 9,4 4 2 SSW 1018,1 20
15.06.2018 05:00:00 9,8 9,7 7 4 S 1018,0 20
15.06.2018 04:00:00 10,3 10,2 4 2 SW 1018,1 20
15.06.2018 03:00:00 10,0 9,9 4 2 SSE 1018,2 20
15.06.2018 02:00:00 10,4 9,3 4 2 SE 1018,3 20
15.06.2018 01:00:00 9,4 9,2 0 0 N 1018,9 20

tt = Température de l'air
td = dewpoint
ff = Vitesse du vent
dd = Direction du vent
ppp = reduced air pressure
vv = visibility

stations d'obs. à proximité